Weather History for Szeged, Hungary

Change the Weather History Date:

Monday, June 24, 2013

  Actual Average (LRAR) Record (LRAR)
Temperature  
Mean Temperature 70 °F -  
Max Temperature 81 °F 80 °F 98 °F (2002)
Min Temperature 59 °F 58 °F 50 °F (2005)
Cooling Degree Days 5    
Growing Degree Days 20 (Base 50)    
Moisture  
Dew Point 66 °F    
Average Humidity 87    
Maximum Humidity 100    
Minimum Humidity 61    
Precipitation  
Precipitation 0.79 in 0.07 in - ()
Sea Level Pressure  
Sea Level Pressure 29.81 in    
Wind  
Wind Speed 6 mph ()    
Max Wind Speed 20 mph    
Max Gust Speed 33 mph    
Visibility 6.4 miles    
Events Rain , Hail , Thunderstorm    
Averages and records for this station are not official NWS values.
T = Trace of Precipitation, MM = Missing Value Source: Averaged Metar Reports

Daily Weather History Graph

Daily Weather History Graph

Search for Another Location

Airport:

Trip Planner

Search our weather history database for the weather conditions in past years. The results will help you decide how hot, cold, wet, or windy it might be!

Date:

Astronomy

Jun. 24, 2013 Rise Set
Actual Time 4:48 AM CEST 8:35 PM CEST
Civil Twilight 4:09 AM CEST 9:14 PM CEST
Nautical Twilight 3:17 AM CEST 10:07 PM CEST
Astronomical Twilight 2:02 AM CEST 11:21 PM CEST
Moon 9:15 PM CEST (6/24) 5:59 AM CEST (6/24)
Length of Visible Light 17h 04m
Length of Day
15h 46m
Full, 99% of the Moon is Illuminated
Jun 24
Full
Jun 30
Last Quarter
Jul 8
New
Jul 16
First Quarter
Jul 22
Full

Hourly Weather History & Observations

Time (CEST) Temp. Heat Index Dew Point Humidity Pressure Visibility Wind Dir Wind Speed Gust Speed Precip Events Conditions
12:45 AM 66.2 °F - 66.2 °F 100% 29.83 in - Calm Calm - N/A   Clear
1:45 AM 66.2 °F - 64.4 °F 94% 29.83 in - Calm Calm - N/A   Clear
2:00 AM 65 °F - 65 °F 100% 29.83 in 7 mi Calm Calm - -   Scattered Clouds
2:45 AM 64.4 °F - 64.4 °F 100% 29.83 in - NNW 4.6 mph - N/A   Clear
3:45 AM 64.4 °F - 64.4 °F 100% 29.83 in - North 3.5 mph - N/A   Clear
4:45 AM 64.4 °F - 64.4 °F 100% 29.83 in - NNE 3.5 mph - N/A   Clear
5:45 AM 64.4 °F - 64.4 °F 100% 29.83 in 5.0 mi NW 3.5 mph - N/A   Partly Cloudy
6:15 AM 66.2 °F - 66.2 °F 100% 29.83 in 5.0 mi NNW 4.6 mph - N/A   Partly Cloudy
6:45 AM 68.0 °F - 66.2 °F 94% 29.83 in - North 6.9 mph - N/A   Clear
7:15 AM 69.8 °F - 68.0 °F 94% 29.83 in - North 8.1 mph - N/A   Clear
7:45 AM 71.6 °F - 68.0 °F 88% 29.83 in 6.2 mi NE 4.6 mph - N/A   Partly Cloudy
8:00 AM 72 °F - 68 °F 82% 29.82 in 9 mi NE 4.5 mph - -   Partly Cloudy
8:15 AM 75.2 °F - 68.0 °F 78% 29.83 in 6.2 mi NNE 5.8 mph - N/A   Partly Cloudy
8:45 AM 75.2 °F - 68.0 °F 78% 29.83 in - NNE 6.9 mph - N/A   Clear
9:15 AM 77.0 °F - 69.8 °F 78% 29.83 in 6.2 mi North 8.1 mph - N/A   Partly Cloudy
9:45 AM 78.8 °F - 69.8 °F 74% 29.83 in 6.2 mi North 6.9 mph - N/A   Partly Cloudy
10:15 AM 78.8 °F - 69.8 °F 74% 29.83 in 6.2 mi NNW 9.2 mph - N/A   Scattered Clouds
10:45 AM 78.8 °F - 69.8 °F 74% 29.83 in 6.2 mi NNW 6.9 mph - N/A   Scattered Clouds
11:15 AM 80.6 °F 83.9 °F 69.8 °F 70% 29.80 in 6.2 mi North 8.1 mph - N/A   Partly Cloudy
11:45 AM 80.6 °F 83.2 °F 68.0 °F 65% 29.80 in 6.2 mi North 8.1 mph - N/A   Scattered Clouds
12:15 PM 80.6 °F 83.2 °F 68.0 °F 65% 29.80 in 6.2 mi North 6.9 mph - N/A Thunderstorm Thunderstorm
12:18 PM 80.6 °F 83.2 °F 68.0 °F 65% 29.77 in 6.2 mi North 6.9 mph - N/A Thunderstorm Thunderstorm
12:45 PM 80.6 °F 82.7 °F 66.2 °F 61% 29.77 in 6.2 mi NNE 4.6 mph - N/A Thunderstorm Thunderstorm
1:15 PM 78.8 °F - 68.0 °F 69% 29.80 in 6.2 mi NNW 6.9 mph - N/A Thunderstorm Thunderstorm
1:37 PM 77.0 °F - 68.0 °F 74% 29.77 in 6.2 mi NNW 8.1 mph - N/A Rain , Thunderstorm Thunderstorms and Rain
1:45 PM 77.0 °F - 69.8 °F 78% 29.77 in 6.2 mi NW 9.2 mph - N/A Rain , Thunderstorm Thunderstorms and Rain
1:50 PM 77.0 °F - 69.8 °F 78% 29.77 in 2.5 mi WNW 10.4 mph - N/A Hail , Thunderstorm Heavy Thunderstorms with Hail
2:00 PM 77 °F - 69 °F 70% 29.76 in 7 mi NW 8.9 mph - - Rain , Thunderstorm Thunderstorms and Rain
2:15 PM 69.8 °F - 69.8 °F 100% 29.77 in 3.7 mi SW 9.2 mph - N/A Rain , Thunderstorm Thunderstorms and Rain
2:45 PM 68.0 °F - 66.2 °F 94% 29.80 in 5.0 mi East 8.1 mph - N/A Rain , Thunderstorm Thunderstorms and Rain
3:15 PM 68.0 °F - 66.2 °F 94% 29.77 in 6.2 mi NE 5.8 mph - N/A Rain , Thunderstorm Thunderstorms and Rain
3:45 PM 71.6 °F - 71.6 °F 100% 29.77 in 6.2 mi WSW 6.9 mph - N/A   Scattered Clouds
4:15 PM 75.2 °F - 71.6 °F 89% 29.77 in 6.2 mi West 5.8 mph - N/A   Scattered Clouds
4:45 PM 71.6 °F - 68.0 °F 88% 29.77 in 6.2 mi WNW 12.7 mph - N/A Rain Light Rain Showers
4:52 PM 71.6 °F - 68.0 °F 88% 29.77 in 6.2 mi WNW 10.4 mph - N/A Rain , Thunderstorm Thunderstorms and Rain
5:15 PM 69.8 °F - 66.2 °F 88% 29.80 in 6.2 mi WNW 13.8 mph - N/A Rain , Thunderstorm Thunderstorms and Rain
5:16 PM 68.0 °F - 66.2 °F 94% 29.80 in - West 13.8 mph 32.2 mph N/A   Unknown
5:17 PM 68.0 °F - 66.2 °F 94% 29.80 in 6.2 mi West 15.0 mph 33.4 mph N/A Rain , Thunderstorm Thunderstorms and Rain
5:45 PM 64.4 °F - 62.6 °F 94% 29.80 in 6.2 mi WNW 19.6 mph 32.2 mph N/A Rain Light Rain Showers
6:15 PM 64.4 °F - 60.8 °F 88% 29.80 in 6.2 mi WNW 19.6 mph - N/A   Partly Cloudy
6:45 PM 62.6 °F - 60.8 °F 94% 29.83 in 6.2 mi WNW 17.3 mph - N/A   Mostly Cloudy
7:15 PM 62.6 °F - 59.0 °F 88% 29.86 in 6.2 mi WNW 11.5 mph - N/A   Mostly Cloudy
7:45 PM 62.6 °F - 60.8 °F 94% 29.86 in 6.2 mi West 10.4 mph - N/A   Scattered Clouds
8:00 PM 62 °F - 60 °F 91% 29.85 in 19 mi West 11.2 mph - -   Partly Cloudy
8:15 PM 60.8 °F - 60.8 °F 100% 29.86 in 6.2 mi WNW 8.1 mph - N/A   Mostly Cloudy
8:45 PM 60.8 °F - 60.8 °F 100% 29.83 in 6.2 mi NW 5.8 mph - N/A Rain Light Rain
9:15 PM 60.8 °F - 60.8 °F 100% 29.83 in 6.2 mi NW 5.8 mph - N/A   Mostly Cloudy
9:45 PM 60.8 °F - 59.0 °F 94% 29.86 in 6.2 mi West 10.4 mph - N/A   Mostly Cloudy
10:45 PM 59.0 °F - 59.0 °F 100% 29.89 in 6.2 mi West 10.4 mph - N/A   Mostly Cloudy
11:45 PM 59.0 °F - 57.2 °F 94% 29.89 in 6.2 mi West 11.5 mph - N/A   Mostly Cloudy